Meteo orario Aberdeen

Oggi, 20 Giugno, Domenica

Tempo Temperatura Precipitazioni Vento Pressione Umidità
00:00 +18°C° 0.7 mm 2 m/s 717 mm Hg 90%
01:00 +17°C° 0.7 mm 2 m/s 717 mm Hg 91%
02:00 +17°C° 0.7 mm 2 m/s 716 mm Hg 92%
03:00 +17°C° 0.1 mm 2 m/s 716 mm Hg 92%
04:00 +17°C° 0.1 mm 2 m/s 716 mm Hg 92%
05:00 +17°C° 0.1 mm 2 m/s 715 mm Hg 92%
06:00 +18°C° 0 mm 4 m/s 716 mm Hg 88%
07:00 +19°C° 0 mm 6 m/s 716 mm Hg 84%
08:00 +18°C° 0 mm 8 m/s 717 mm Hg 81%
09:00 +18°C° 0 mm 8 m/s 717 mm Hg 77%
10:00 +18°C° 0 mm 9 m/s 718 mm Hg 73%
11:00 +17°C° 0 mm 9 m/s 719 mm Hg 69%
12:00 +19°C° 0.1 mm 9 m/s 720 mm Hg 60%
13:00 +22°C° 0.1 mm 8 m/s 720 mm Hg 51%
14:00 +23°C° 0.1 mm 8 m/s 720 mm Hg 42%
15:00 +23°C° 0.1 mm 8 m/s 721 mm Hg 45%
16:00 +22°C° 0.1 mm 8 m/s 721 mm Hg 47%
17:00 +21°C° 0.1 mm 8 m/s 722 mm Hg 50%
18:00 +18°C° 0 mm 7 m/s 723 mm Hg 53%
19:00 +17°C° 0 mm 5 m/s 723 mm Hg 55%
20:00 +15°C° 0 mm 4 m/s 724 mm Hg 58%
21:00 +13°C° 0 mm 4 m/s 724 mm Hg 65%
22:00 +12°C° 0 mm 3 m/s 725 mm Hg 72%
23:00 +10°C° 0 mm 3 m/s 725 mm Hg 79%

Domani, 21 Giugno, Lunedi

Tempo Temperatura Precipitazioni Vento Pressione Umidità
00:00 +10°C° 0 mm 3 m/s 726 mm Hg 80%
01:00 +9°C° 0 mm 2 m/s 726 mm Hg 81%
02:00 +8°C° 0 mm 2 m/s 727 mm Hg 82%
03:00 +8°C° 0 mm 2 m/s 727 mm Hg 80%
04:00 +8°C° 0 mm 2 m/s 727 mm Hg 78%
05:00 +8°C° 0 mm 2 m/s 728 mm Hg 77%
06:00 +12°C° 0 mm 2 m/s 728 mm Hg 66%
07:00 +13°C° 0 mm 3 m/s 728 mm Hg 55%
08:00 +16°C° 0 mm 3 m/s 728 mm Hg 44%
09:00 +18°C° 0 mm 3 m/s 727 mm Hg 38%
10:00 +19°C° 0 mm 4 m/s 727 mm Hg 32%
11:00 +21°C° 0 mm 5 m/s 727 mm Hg 26%
12:00 +22°C° 0 mm 5 m/s 726 mm Hg 24%
13:00 +23°C° 0 mm 5 m/s 726 mm Hg 22%
14:00 +25°C° 0 mm 5 m/s 725 mm Hg 20%
15:00 +23°C° 0 mm 5 m/s 725 mm Hg 20%
16:00 +23°C° 0 mm 5 m/s 724 mm Hg 20%
17:00 +23°C° 0 mm 4 m/s 724 mm Hg 21%
18:00 +20°C° 0 mm 4 m/s 724 mm Hg 26%
19:00 +18°C° 0 mm 4 m/s 723 mm Hg 32%
20:00 +14°C° 0 mm 3 m/s 723 mm Hg 37%
21:00 +13°C° 0 mm 3 m/s 723 mm Hg 42%
22:00 +12°C° 0 mm 3 m/s 723 mm Hg 47%
23:00 +11°C° 0 mm 3 m/s 723 mm Hg 52%

Dopodomani, 22 Giugno, Martedi

Tempo Temperatura Precipitazioni Vento Pressione Umidità
00:00 +13°C° 0 mm 2 m/s 723 mm Hg 51%
01:00 +13°C° 0 mm 2 m/s 723 mm Hg 50%
02:00 +13°C° 0 mm 2 m/s 722 mm Hg 50%
03:00 +13°C° 0 mm 2 m/s 722 mm Hg 51%
04:00 +13°C° 0 mm 2 m/s 722 mm Hg 53%
05:00 +13°C° 0 mm 2 m/s 721 mm Hg 54%
06:00 +16°C° 0 mm 2 m/s 721 mm Hg 49%
07:00 +19°C° 0 mm 2 m/s 721 mm Hg 44%
08:00 +23°C° 0 mm 2 m/s 721 mm Hg 39%
09:00 +25°C° 0 mm 2 m/s 721 mm Hg 34%
10:00 +28°C° 0 mm 2 m/s 721 mm Hg 30%
11:00 +30°C° 0 mm 2 m/s 721 mm Hg 25%
12:00 +31°C° 0 mm 2 m/s 720 mm Hg 23%
13:00 +32°C° 0 mm 2 m/s 720 mm Hg 21%
14:00 +32°C° 0 mm 2 m/s 720 mm Hg 19%
15:00 +32°C° 0 mm 2 m/s 719 mm Hg 19%
16:00 +32°C° 0 mm 2 m/s 719 mm Hg 19%
17:00 +32°C° 0 mm 2 m/s 719 mm Hg 19%
18:00 +29°C° 0 mm 2 m/s 719 mm Hg 25%
19:00 +26°C° 0 mm 2 m/s 719 mm Hg 31%
20:00 +23°C° 0 mm 2 m/s 719 mm Hg 36%
21:00 +21°C° 0 mm 3 m/s 719 mm Hg 50%
22:00 +19°C° 0 mm 3 m/s 719 mm Hg 64%
23:00 +18°C° 0 mm 4 m/s 719 mm Hg 77%

23 Giugno, Mercoledi

Tempo Temperatura Precipitazioni Vento Pressione Umidità
00:00 +18°C° 0 mm 3 m/s 719 mm Hg 83%
01:00 +17°C° 0 mm 3 m/s 718 mm Hg 90%
02:00 +17°C° 0 mm 3 m/s 718 mm Hg 96%
03:00 +17°C° 0 mm 3 m/s 718 mm Hg 93%
04:00 +18°C° 0 mm 3 m/s 718 mm Hg 91%
05:00 +18°C° 0 mm 4 m/s 718 mm Hg 89%
06:00 +21°C° 0 mm 4 m/s 718 mm Hg 73%
07:00 +26°C° 0 mm 5 m/s 718 mm Hg 58%
08:00 +29°C° 0 mm 6 m/s 718 mm Hg 42%
09:00 +33°C° 0 mm 6 m/s 718 mm Hg 36%
10:00 +36°C° 0 mm 6 m/s 718 mm Hg 29%
11:00 +39°C° 0 mm 6 m/s 718 mm Hg 22%
12:00 +41°C° 0 mm 6 m/s 717 mm Hg 20%
13:00 +42°C° 0 mm 5 m/s 717 mm Hg 17%
14:00 +43°C° 0 mm 5 m/s 716 mm Hg 15%
15:00 +43°C° 0 mm 4 m/s 716 mm Hg 15%
16:00 +43°C° 0 mm 4 m/s 716 mm Hg 16%
17:00 +42°C° 0 mm 4 m/s 715 mm Hg 16%
18:00 +37°C° 0 mm 4 m/s 716 mm Hg 29%
19:00 +32°C° 0 mm 4 m/s 717 mm Hg 42%
20:00 +26°C° 0 mm 4 m/s 717 mm Hg 55%
21:00 +25°C° 0.4 mm 5 m/s 717 mm Hg 64%
22:00 +23°C° 0.4 mm 5 m/s 717 mm Hg 72%
23:00 +22°C° 0.4 mm 5 m/s 717 mm Hg 80%

24 Giugno, Giovedi

Tempo Temperatura Precipitazioni Vento Pressione Umidità
00:00 +21°C° 0 mm 4 m/s 718 mm Hg 82%
01:00 +20°C° 0 mm 3 m/s 718 mm Hg 84%
02:00 +19°C° 0 mm 2 m/s 718 mm Hg 86%
03:00 +19°C° 0 mm 3 m/s 718 mm Hg 85%
04:00 +19°C° 0 mm 4 m/s 719 mm Hg 85%
05:00 +19°C° 0 mm 4 m/s 719 mm Hg 85%
06:00 +22°C° 0 mm 5 m/s 720 mm Hg 72%
07:00 +25°C° 0 mm 5 m/s 721 mm Hg 58%
08:00 +28°C° 0 mm 5 m/s 721 mm Hg 45%
09:00 +29°C° 0 mm 5 m/s 722 mm Hg 40%
10:00 +32°C° 0 mm 5 m/s 722 mm Hg 36%
11:00 +33°C° 0 mm 5 m/s 723 mm Hg 31%
12:00 +33°C° 0 mm 5 m/s 723 mm Hg 31%
13:00 +34°C° 0 mm 5 m/s 723 mm Hg 30%
14:00 +34°C° 0 mm 4 m/s 723 mm Hg 29%
15:00 +29°C° 0.5 mm 5 m/s 724 mm Hg 45%
16:00 +24°C° 0.5 mm 6 m/s 724 mm Hg 62%
17:00 +20°C° 0.5 mm 7 m/s 725 mm Hg 78%
18:00 +20°C° 0.1 mm 6 m/s 725 mm Hg 77%
19:00 +19°C° 0.1 mm 5 m/s 726 mm Hg 76%
20:00 +18°C° 0.1 mm 4 m/s 726 mm Hg 75%
21:00 +17°C° 0 mm 4 m/s 726 mm Hg 73%
22:00 +17°C° 0 mm 4 m/s 727 mm Hg 71%
23:00 +15°C° 0 mm 4 m/s 727 mm Hg 68%

25 Giugno, Venerdi

Tempo Temperatura Precipitazioni Vento Pressione Umidità
00:00 +14°C° 0 mm 3 m/s 727 mm Hg 71%
01:00 +13°C° 0 mm 3 m/s 727 mm Hg 74%
02:00 +14°C° 0 mm 2 m/s 727 mm Hg 76%
03:00 +14°C° 0 mm 2 m/s 727 mm Hg 75%
04:00 +14°C° 0 mm 2 m/s 728 mm Hg 73%
05:00 +15°C° 0 mm 1 m/s 728 mm Hg 71%
06:00 +17°C° 0 mm 2 m/s 728 mm Hg 62%
07:00 +20°C° 0 mm 3 m/s 729 mm Hg 52%
08:00 +24°C° 0 mm 3 m/s 729 mm Hg 43%
09:00 +25°C° 0 mm 4 m/s 728 mm Hg 37%
10:00 +27°C° 0 mm 4 m/s 728 mm Hg 32%
11:00 +28°C° 0 mm 5 m/s 728 mm Hg 27%
12:00 +29°C° 0 mm 5 m/s 728 mm Hg 25%
13:00 +29°C° 0 mm 6 m/s 727 mm Hg 23%
14:00 +30°C° 0 mm 6 m/s 727 mm Hg 21%
15:00 +30°C° 0 mm 6 m/s 727 mm Hg 21%
16:00 +29°C° 0 mm 5 m/s 727 mm Hg 22%
17:00 +29°C° 0 mm 5 m/s 727 mm Hg 23%
18:00 +26°C° 0 mm 4 m/s 727 mm Hg 30%
19:00 +23°C° 0 mm 4 m/s 727 mm Hg 36%
20:00 +20°C° 0 mm 3 m/s 727 mm Hg 43%
21:00 +19°C° 0 mm 2 m/s 727 mm Hg 47%
22:00 +18°C° 0 mm 2 m/s 728 mm Hg 52%
23:00 +18°C° 0 mm 1 m/s 728 mm Hg 56%
Mostrare altro

Abbiamo bisogno del tuo consenso

Meteoprog e i nostri fornitori di servizi possono memorizzare e accedere a dati personali come cookie, identificatori di dispositivi o altre tecnologie simili sul tuo dispositivo e possono elaborare tali dati per personalizzare i contenuti e gli annunci, nonché fornire funzionalità dei social media e analizzarne il traffico.

  • Archiviare e/o accedere alle informazioni sul tuo dispositivo

    Cookie, identificatori di dispositivi o altre informazioni possono essere memorizzati o resi accessibili sul tuo dispositivo per le finalità sopra indicate.

  • Annunci e contenuti personalizzati, misurazione di annunci e contenuti, approfondimenti sul pubblico e sviluppo di prodotti

    Gli annunci e i contenuti possono essere personalizzati in base a un profilo. È possibile aggiungere più dati per personalizzare meglio annunci e contenuti. È possibile misurare il rendimento degli annunci e dei contenuti. È possibile ricavare informazioni sul pubblico che ha visto gli annunci e i contenuti. Tali dati possono essere utilizzati per sviluppare o migliorare l'esperienza, i sistemi e il software dell'utente.

Cliccando su “Accetto”, acconsenti all'uso di cookie, identificatori di dispositivo, web beacon o altre tecnologie simili. Puoi modificare le impostazioni nel browser del tuo dispositivo.

Per determinati scopi, è possibile fare affidamento su interessi legali, piuttosto che sul consenso. Puoi approfondire questo argomento consultando la nostra Informativa sulla privacy e sui cookie.